Weather History for KPEZ - December, 2013

Change the Weather History Date:

Tuesday, December 24, 2013

  Actual Average Record
Temperature  
Mean Temperature 44 °F -  
Max Temperature 61 °F 67 °F 75 °F (1992)
Min Temperature 28 °F 34 °F 20 °F (1990)
Degree Days  
Heating Degree Days 20    
Moisture  
Dew Point 28 °F    
Average Humidity 60    
Maximum Humidity 90    
Minimum Humidity 20    
Precipitation  
Precipitation 0.00 in - - ()
Sea Level Pressure  
Sea Level Pressure 30.44 in    
Wind  
Wind Speed 2 mph (ESE)    
Max Wind Speed 7 mph    
Max Gust Speed -    
Visibility 10 miles    
Events      
Averages and records for this station are not official NWS values.
T = Trace of Precipitation, MM = Missing Value Source: NWS Daily Summary

Daily Weather History Graph

Daily Weather History Graph

Search for Another Location

Airport or City:

Trip Planner

Search our weather history database for the weather conditions in past years. The results will help you decide how hot, cold, wet, or windy it might be!

Date:

Astronomy

Dec. 24, 2013 Rise Set
Actual Time 7:24 AM CST 5:42 PM CST
Civil Twilight 6:58 AM CST 6:08 PM CST
Nautical Twilight 6:29 AM CST 6:38 PM CST
Astronomical Twilight 6:00 AM CST 7:07 PM CST
Moon No Moon Rise 11:49 AM CST (12/24)
Length of Visible Light 11h 10m
Length of Day
10h 17m
Waning Gibbous, 58% of the Moon is Illuminated
Dec 24
Waning Gibbous
Dec 25
Last Quarter
Jan 1
New
Jan 7
First Quarter
Jan 15
Full

Hourly Weather History & Observations

Time (CST) Temp. Windchill Dew Point Humidity Pressure Visibility Wind Dir Wind Speed Gust Speed Precip Events Conditions
12:15 AM 33.4 °F - 28.0 °F 81% 30.54 in 10.0 mi Calm Calm - N/A   Clear
12:35 AM 32.2 °F - 27.9 °F 84% 30.54 in 10.0 mi Calm Calm - N/A   Clear
12:55 AM 33.8 °F - 29.1 °F 83% 30.54 in 10.0 mi Calm Calm - N/A   Clear
1:15 AM 33.3 °F 28.9 °F 28.9 °F 84% 30.53 in 10.0 mi NNE 4.6 mph - N/A   Clear
1:35 AM 35.1 °F - 28.8 °F 78% 30.53 in 10.0 mi Calm Calm - N/A   Clear
1:55 AM 33.3 °F - 27.9 °F 81% 30.53 in 10.0 mi Calm Calm - N/A   Clear
2:15 AM 32.0 °F - 27.7 °F 84% 30.53 in 10.0 mi Calm Calm - N/A   Clear
2:35 AM 30.6 °F - 27.1 °F 87% 30.53 in 10.0 mi Calm Calm - N/A   Clear
2:55 AM 29.5 °F - 26.2 °F 88% 30.53 in 10.0 mi Calm Calm - N/A   Clear
3:15 AM 30.7 °F - 27.7 °F 88% 30.53 in 10.0 mi Calm Calm - N/A   Clear
3:35 AM 31.1 °F - 27.5 °F 87% 30.53 in 10.0 mi Calm Calm - N/A   Clear
3:55 AM 31.1 °F - 27.3 °F 86% 30.52 in 10.0 mi Calm Calm - N/A   Clear
4:15 AM 31.6 °F 28.3 °F 27.7 °F 85% 30.52 in 10.0 mi North 3.5 mph - N/A   Clear
4:35 AM 32.7 °F 28.3 °F 28.4 °F 84% 30.51 in 10.0 mi NNE 4.6 mph - N/A   Clear
4:55 AM 33.8 °F 29.6 °F 29.1 °F 83% 30.51 in 10.0 mi NNE 4.6 mph - N/A   Clear
5:15 AM 34.0 °F - 28.8 °F 81% 30.51 in 10.0 mi Calm Calm - N/A   Clear
5:35 AM 32.0 °F - 27.3 °F 83% 30.51 in 10.0 mi Calm Calm - N/A   Clear
5:55 AM 31.1 °F - 26.4 °F 83% 30.51 in 10.0 mi Calm Calm - N/A   Clear
6:15 AM 28.9 °F - 25.2 °F 86% 30.51 in 10.0 mi Calm Calm - N/A   Clear
6:35 AM 30.9 °F - 28.2 °F 90% 30.51 in 10.0 mi Calm Calm - N/A   Clear
7:15 AM 30.2 °F - 27.7 °F 90% 30.52 in 10.0 mi Calm Calm - N/A   Clear
7:55 AM 28.9 °F - 25.7 °F 88% 30.53 in 10.0 mi Calm Calm - N/A   Clear
8:15 AM 31.5 °F - 28.9 °F 90% 30.54 in 10.0 mi Calm Calm - N/A   Clear
8:35 AM 34.2 °F - 30.2 °F 85% 30.55 in 10.0 mi Calm Calm - N/A   Clear
8:55 AM 37.4 °F - 31.5 °F 79% 30.55 in 10.0 mi Calm Calm - N/A   Clear
9:15 AM 39.7 °F - 32.0 °F 74% 30.55 in 10.0 mi Calm Calm - N/A   Clear
9:35 AM 41.5 °F - 32.0 °F 69% 30.54 in 10.0 mi Calm Calm - N/A   Clear
9:55 AM 43.5 °F 40.9 °F 32.4 °F 65% 30.54 in 10.0 mi East 4.6 mph - N/A   Clear
10:15 AM 45.1 °F - 32.2 °F 60% 30.54 in 10.0 mi Calm Calm - N/A   Clear
10:35 AM 47.1 °F - 32.0 °F 56% 30.54 in 10.0 mi East 3.5 mph - N/A   Clear
10:55 AM 49.1 °F - 31.1 °F 50% 30.53 in 10.0 mi ENE 4.6 mph - N/A   Clear
11:15 AM 49.5 °F - 29.5 °F 46% 30.52 in 10.0 mi SE 4.6 mph - N/A   Clear
11:35 AM 51.8 °F - 28.2 °F 40% 30.51 in 10.0 mi East 3.5 mph - N/A   Clear
11:55 AM 53.1 °F - 27.3 °F 37% 30.51 in 10.0 mi Calm Calm - N/A   Clear
12:15 PM 55.0 °F - 26.6 °F 33% 30.49 in 10.0 mi ESE 3.5 mph - N/A   Clear
12:35 PM 56.3 °F - 25.5 °F 31% 30.47 in 10.0 mi East 4.6 mph - N/A   Clear
12:55 PM 57.6 °F - 23.2 °F 27% 30.45 in 10.0 mi East 4.6 mph - N/A   Clear
1:15 PM 58.5 °F - 21.9 °F 24% 30.44 in 10.0 mi Calm Calm - N/A   Clear
1:35 PM 60.1 °F - 22.8 °F 24% 30.42 in 10.0 mi SSE 4.6 mph - N/A   Clear
1:55 PM 60.1 °F - 21.0 °F 22% 30.40 in 10.0 mi South 4.6 mph - N/A   Clear
2:15 PM 60.4 °F - 20.5 °F 21% 30.39 in 10.0 mi ESE 6.9 mph - N/A   Clear
2:35 PM 61.0 °F - 20.1 °F 21% 30.39 in 10.0 mi SSE 6.9 mph - N/A   Clear
2:55 PM 61.5 °F - 20.5 °F 21% 30.38 in 10.0 mi SE 4.6 mph - N/A   Clear
3:15 PM 61.7 °F - 20.8 °F 21% 30.37 in 10.0 mi ESE 4.6 mph - N/A   Clear
3:35 PM 61.7 °F - 21.4 °F 21% 30.36 in 10.0 mi SE 4.6 mph - N/A   Clear
3:55 PM 61.7 °F - 19.9 °F 20% 30.36 in 10.0 mi SE 6.9 mph - N/A   Clear
4:15 PM 61.2 °F - 19.9 °F 20% 30.35 in 10.0 mi ESE 6.9 mph - N/A   Clear
4:55 PM 60.1 °F - 20.1 °F 21% 30.34 in 10.0 mi ESE 6.9 mph - N/A   Clear
5:15 PM 59.0 °F - 19.9 °F 22% 30.35 in 10.0 mi SE 6.9 mph - N/A   Clear
5:35 PM 57.2 °F - 20.8 °F 24% 30.34 in 10.0 mi SE 5.8 mph - N/A   Clear
5:55 PM 54.9 °F - 21.0 °F 27% 30.34 in 10.0 mi SE 3.5 mph - N/A   Clear
6:15 PM 52.5 °F - 21.9 °F 30% 30.34 in 10.0 mi Calm Calm - N/A   Clear
6:35 PM 50.4 °F - 22.1 °F 33% 30.33 in 10.0 mi Calm Calm - N/A   Clear
6:55 PM 50.2 °F - 21.9 °F 33% 30.33 in 10.0 mi SE 3.5 mph - N/A   Clear
7:35 PM 50.0 °F - 25.5 °F 39% 30.32 in 10.0 mi SE 4.6 mph - N/A   Clear
8:15 PM 49.5 °F - 28.8 °F 45% 30.32 in 10.0 mi ESE 4.6 mph - N/A   Clear
8:55 PM 48.6 °F - 33.4 °F 56% 30.31 in 10.0 mi SE 5.8 mph - N/A   Clear
9:15 PM 47.7 °F - 35.1 °F 62% 30.31 in 10.0 mi ESE 4.6 mph - N/A   Clear
9:35 PM 47.5 °F - 36.9 °F 67% 30.31 in 10.0 mi Calm Calm - N/A   Clear
9:55 PM 46.8 °F - 37.6 °F 70% 30.31 in 10.0 mi SE 4.6 mph - N/A   Clear
10:15 PM 46.4 °F - 38.5 °F 74% 30.31 in 10.0 mi Calm Calm - N/A   Clear
10:35 PM 45.0 °F - 38.3 °F 77% 30.31 in 10.0 mi Calm Calm - N/A   Clear
10:55 PM 45.5 °F - 39.2 °F 79% 30.31 in 10.0 mi Calm Calm - N/A   Clear
11:15 PM 43.0 °F - 38.1 °F 83% 30.30 in 10.0 mi Calm Calm - N/A   Clear
11:35 PM 40.6 °F - 37.0 °F 87% 30.30 in 10.0 mi Calm Calm - N/A   Clear
11:55 PM 41.0 °F - 37.6 °F 88% 30.29 in 10.0 mi Calm Calm - N/A   Clear